When you browse on this site, cookies collect data to enhance your experience and personalize the content and advertising you see.
Visit our Privacy Policy to learn more. By continuing to use the site, you agree to this use of cookies and data.
  • In Austria
  • List of Countries
  • For 7 days
  • Water Temperature
  • Weather Map
  • News
  • Weather Widgets
  • user-avatar
    Login

    Hourly Weather Razgrad

    Today, 21 February, Friday

    Time Temperature Precipitation Wind Pressure Humidity
    00:00 +3°C° 0.2 mm 3 mps 744 mmHg 93%
    01:00 +3°C° 0.2 mm 3 mps 744 mmHg 93%
    02:00 +3°C° 0 mm 3 mps 744 mmHg 92%
    03:00 +3°C° 0.1 mm 3 mps 744 mmHg 93%
    04:00 +3°C° 0.1 mm 3 mps 744 mmHg 94%
    05:00 +3°C° 0.1 mm 3 mps 744 mmHg 94%
    06:00 +4°C° 0 mm 2 mps 745 mmHg 93%
    07:00 +4°C° 0 mm 2 mps 745 mmHg 92%
    08:00 +4°C° 0 mm 2 mps 745 mmHg 91%
    15:00 +7°C° 0 mm 3 mps 745 mmHg 65%
    16:00 +7°C° 0 mm 3 mps 744 mmHg 65%
    17:00 +7°C° 0 mm 3 mps 744 mmHg 65%
    18:00 +7°C° 0 mm 3 mps 745 mmHg 70%
    19:00 +5°C° 0 mm 3 mps 745 mmHg 75%
    20:00 +4°C° 0 mm 3 mps 745 mmHg 81%
    21:00 +4°C° 0 mm 3 mps 745 mmHg 82%
    22:00 +3°C° 0 mm 3 mps 745 mmHg 84%
    23:00 +3°C° 0 mm 3 mps 745 mmHg 85%

    Tomorrow, 22 February, Saturday

    Time Temperature Precipitation Wind Pressure Humidity
    00:00 +3°C° 0 mm 3 mps 745 mmHg 83%
    01:00 +3°C° 0 mm 3 mps 745 mmHg 81%
    02:00 +1°C° 0 mm 4 mps 745 mmHg 79%
    03:00 +1°C° 0 mm 4 mps 745 mmHg 80%
    04:00 0°C° 0 mm 4 mps 745 mmHg 81%
    05:00 0°C° 0 mm 4 mps 745 mmHg 83%
    06:00 +1°C° 0 mm 3 mps 746 mmHg 84%
    07:00 +1°C° 0 mm 3 mps 746 mmHg 86%
    08:00 +2°C° 0 mm 2 mps 747 mmHg 88%
    09:00 +2°C° 0 mm 3 mps 747 mmHg 84%
    10:00 +3°C° 0 mm 3 mps 748 mmHg 79%
    11:00 +4°C° 0 mm 3 mps 748 mmHg 75%
    12:00 +5°C° 0 mm 3 mps 749 mmHg 71%
    13:00 +6°C° 0 mm 4 mps 749 mmHg 67%
    14:00 +6°C° 0 mm 4 mps 749 mmHg 63%
    15:00 +6°C° 0.1 mm 4 mps 749 mmHg 62%
    16:00 +7°C° 0.1 mm 3 mps 749 mmHg 61%
    17:00 +7°C° 0.1 mm 3 mps 749 mmHg 61%
    18:00 +6°C° 0 mm 2 mps 749 mmHg 65%
    19:00 +5°C° 0 mm 2 mps 749 mmHg 69%
    20:00 +5°C° 0 mm 1 mps 750 mmHg 74%
    21:00 +5°C° 0 mm 1 mps 750 mmHg 75%
    22:00 +5°C° 0 mm 1 mps 750 mmHg 76%
    23:00 +5°C° 0 mm 1 mps 750 mmHg 77%

    Day after tomorrow, 23 February, Sunday

    Time Temperature Precipitation Wind Pressure Humidity
    00:00 +4°C° 0 mm 1 mps 749 mmHg 79%
    01:00 +3°C° 0 mm 2 mps 749 mmHg 82%
    02:00 +3°C° 0 mm 2 mps 749 mmHg 84%
    03:00 +2°C° 0 mm 2 mps 748 mmHg 84%
    04:00 +2°C° 0 mm 2 mps 748 mmHg 84%
    05:00 +1°C° 0 mm 3 mps 747 mmHg 85%
    06:00 +1°C° 0 mm 3 mps 747 mmHg 81%
    07:00 +2°C° 0 mm 3 mps 747 mmHg 78%
    08:00 +2°C° 0 mm 3 mps 747 mmHg 75%
    09:00 +4°C° 0 mm 4 mps 747 mmHg 65%
    10:00 +5°C° 0 mm 5 mps 747 mmHg 56%
    11:00 +7°C° 0 mm 5 mps 747 mmHg 47%
    12:00 +8°C° 0 mm 6 mps 746 mmHg 45%
    13:00 +9°C° 0 mm 6 mps 745 mmHg 43%
    14:00 +11°C° 0 mm 6 mps 745 mmHg 41%
    15:00 +10°C° 0 mm 5 mps 744 mmHg 46%
    16:00 +11°C° 0 mm 4 mps 744 mmHg 50%
    17:00 +11°C° 0 mm 3 mps 743 mmHg 55%
    18:00 +10°C° 0 mm 3 mps 744 mmHg 60%
    19:00 +9°C° 0 mm 2 mps 744 mmHg 65%
    20:00 +8°C° 0 mm 2 mps 744 mmHg 70%
    21:00 +8°C° 0 mm 2 mps 743 mmHg 73%
    22:00 +8°C° 0 mm 2 mps 743 mmHg 75%
    23:00 +7°C° 0 mm 2 mps 743 mmHg 77%

    24 February, Monday

    Time Temperature Precipitation Wind Pressure Humidity
    00:00 +7°C° 0 mm 2 mps 742 mmHg 77%
    01:00 +7°C° 0 mm 2 mps 742 mmHg 78%
    02:00 +7°C° 0 mm 2 mps 741 mmHg 78%
    03:00 +7°C° 0 mm 2 mps 740 mmHg 76%
    04:00 +7°C° 0 mm 2 mps 739 mmHg 75%
    05:00 +7°C° 0 mm 2 mps 738 mmHg 73%
    06:00 +7°C° 0 mm 3 mps 738 mmHg 69%
    07:00 +8°C° 0 mm 3 mps 737 mmHg 65%
    08:00 +9°C° 0 mm 3 mps 737 mmHg 62%
    09:00 +9°C° 0 mm 6 mps 737 mmHg 57%
    10:00 +11°C° 0 mm 9 mps 737 mmHg 53%
    11:00 +12°C° 0 mm 13 mps 737 mmHg 49%
    12:00 +12°C° 0 mm 13 mps 738 mmHg 48%
    13:00 +12°C° 0 mm 14 mps 738 mmHg 46%
    14:00 +10°C° 0 mm 14 mps 738 mmHg 45%
    15:00 +9°C° 0 mm 13 mps 739 mmHg 42%
    16:00 +8°C° 0 mm 12 mps 740 mmHg 38%
    17:00 +7°C° 0 mm 11 mps 741 mmHg 35%
    18:00 +6°C° 0 mm 9 mps 742 mmHg 38%
    19:00 +5°C° 0 mm 7 mps 743 mmHg 42%
    20:00 +5°C° 0 mm 5 mps 745 mmHg 45%
    21:00 +5°C° 0 mm 4 mps 745 mmHg 49%
    22:00 +4°C° 0 mm 4 mps 746 mmHg 54%
    23:00 +3°C° 0 mm 3 mps 746 mmHg 58%

    25 February, Tuesday

    Time Temperature Precipitation Wind Pressure Humidity
    00:00 +3°C° 0 mm 3 mps 747 mmHg 61%
    01:00 +3°C° 0 mm 2 mps 747 mmHg 65%
    02:00 +3°C° 0 mm 2 mps 747 mmHg 68%
    03:00 +2°C° 0 mm 2 mps 747 mmHg 70%
    04:00 +2°C° 0 mm 2 mps 747 mmHg 72%
    05:00 +2°C° 0 mm 2 mps 747 mmHg 73%
    06:00 +2°C° 0 mm 2 mps 747 mmHg 72%
    07:00 +3°C° 0 mm 1 mps 747 mmHg 70%
    08:00 +4°C° 0 mm 1 mps 747 mmHg 69%
    09:00 +4°C° 0 mm 2 mps 747 mmHg 60%
    10:00 +6°C° 0 mm 2 mps 747 mmHg 51%
    11:00 +8°C° 0 mm 2 mps 746 mmHg 42%
    12:00 +9°C° 0 mm 3 mps 746 mmHg 39%
    13:00 +10°C° 0 mm 3 mps 745 mmHg 36%
    14:00 +11°C° 0 mm 3 mps 745 mmHg 33%
    15:00 +11°C° 0 mm 3 mps 744 mmHg 37%
    16:00 +10°C° 0 mm 3 mps 743 mmHg 40%
    17:00 +10°C° 0 mm 3 mps 742 mmHg 44%
    18:00 +9°C° 0 mm 3 mps 742 mmHg 49%
    19:00 +7°C° 0 mm 2 mps 742 mmHg 54%
    20:00 +6°C° 0 mm 2 mps 742 mmHg 59%
    21:00 +6°C° 0 mm 2 mps 741 mmHg 61%
    22:00 +5°C° 0 mm 2 mps 741 mmHg 63%
    23:00 +5°C° 0 mm 2 mps 741 mmHg 65%

    26 February, Wednesday

    Time Temperature Precipitation Wind Pressure Humidity
    00:00 +5°C° 0 mm 2 mps 740 mmHg 66%
    01:00 +5°C° 0 mm 2 mps 740 mmHg 68%
    02:00 +5°C° 0 mm 2 mps 739 mmHg 69%
    03:00 +5°C° 0 mm 1 mps 738 mmHg 69%
    04:00 +5°C° 0 mm 1 mps 738 mmHg 69%
    05:00 +5°C° 0 mm 1 mps 737 mmHg 69%
    06:00 +6°C° 0 mm 1 mps 737 mmHg 68%
    07:00 +6°C° 0 mm 1 mps 737 mmHg 68%
    08:00 +6°C° 0 mm 1 mps 737 mmHg 67%
    09:00 +8°C° 0 mm 2 mps 737 mmHg 58%
    10:00 +10°C° 0 mm 2 mps 737 mmHg 50%
    11:00 +13°C° 0 mm 2 mps 736 mmHg 41%
    12:00 +15°C° 0 mm 2 mps 736 mmHg 41%
    13:00 +16°C° 0 mm 3 mps 735 mmHg 42%
    14:00 +17°C° 0 mm 3 mps 735 mmHg 42%
    15:00 +16°C° 0 mm 3 mps 735 mmHg 47%
    16:00 +16°C° 0 mm 2 mps 734 mmHg 51%
    17:00 +15°C° 0 mm 1 mps 734 mmHg 55%
    18:00 +14°C° 0 mm 1 mps 734 mmHg 58%
    19:00 +13°C° 0 mm 1 mps 734 mmHg 62%
    20:00 +11°C° 0 mm 1 mps 734 mmHg 65%
    21:00 +11°C° 0 mm 1 mps 734 mmHg 68%
    22:00 +10°C° 0 mm 1 mps 734 mmHg 70%
    23:00 +10°C° 0 mm 1 mps 734 mmHg 73%
    Show more